Regional Weather Roundup
Issued by NWS

Home | Current Version | Previous Version | Graphics & Text | Print | Product List | Glossary On
Versions: 1 2 3 4 5 6 7 8 9 10 11 12 13 14 15 16 17 18 19 20 21 22 23 24 25 26 27 28 29 30 31 32 33 34 35 36 37 38 39 40 41 42 43 44 45 46 47 48 49 50
000
ASUS43 KLSX 141107
RWRMO

WEATHER SUMMARY FOR MISSOURI
NATIONAL WEATHER SERVICE SPRINGFIELD MO
500 AM CST THU DEC 14 2017

NOTE: "FAIR" INDICATES FEW OR NO CLOUDS BELOW 12,000 FEET WITH NO
       SIGNIFICANT WEATHER AND/OR OBSTRUCTIONS TO VISIBILITY.
       CURRENT SKY AND/OR WEATHER CONDITIONS ARE NOT AVAILABLE FOR
       CHILLICOTHE AND FARMINGTON.

MOZ001>031-035>038-043-044-053-054-141200-
...NORTHERN AND WESTERN MISSOURI...

CITY           SKY/WX    TMP DP  RH WIND       PRES   REMARKS
KANSAS CTY INT CLOUDY    36  22  56 N7        30.01S
KANSAS C DTWN  CLOUDY    39  21  48 N7        30.02S
LEE`S SUMMIT   CLOUDY    37  22  54 N8        30.02R
ST JOSEPH      CLOUDY    36  25  64 N7        30.03S
CHILLICOTHE      N/A     31  20  63 VRB6      30.02S WCI  25
KIRKSVILLE     CLOUDY    28  25  88 N10       29.99R WCI  19

$$
MOZ066>068-077>081-088>096-101>105-141200-
...SOUTHWEST MISSOURI...

CITY           SKY/WX    TMP DP  RH WIND       PRES   REMARKS
SPRINGFIELD    CLOUDY    30  26  85 N7        29.96R WCI  23
JOPLIN         CLEAR     31  28  89 NW5       30.01S WCI  26
BRANSON        CLOUDY    36  27  69 CALM      29.98R

$$
MOZ032>034-039>042-045>050-055>058-069>072-141200-
...CENTRAL MISSOURI...

CITY           SKY/WX    TMP DP  RH WIND       PRES   REMARKS
COLUMBIA       CLOUDY    31  21  66 NW7       29.98R WCI  24
JEFFERSON CITY CLOUDY    33  20  58 NW6       30.00R WCI  28
ROLLA          CLEAR     28  20  71 W7        29.96R WCI  21
SEDALIA        CLOUDY    33  24  69 N9        30.03R WCI  25
WHITEMAN AFB   PTCLDY    33  22  64 N7        29.97R WCI  27
WARRENSBURG    CLOUDY    34  23  64 NW5       30.02R WCI  30
OSAGE BEACH    CLOUDY    36  22  56 VRB6      30.00R

$$
MOZ051-052-059>065-141200-
...EAST CENTRAL MISSOURI...

CITY           SKY/WX    TMP DP  RH WIND       PRES   REMARKS
ST LOUIS INTL  CLOUDY    31  21  66 N15       29.96R WCI  20
SPIRIT OF STL  CLOUDY    34  24  67 NE9       29.97R WCI  27
ST CHARLES     CLOUDY    31  20  63 N15G21    29.98R WCI  20

$$
MOZ072>076-082>087-097>100-106>115-141200-
...SOUTH CENTRAL AND SOUTHEAST MISSOURI...

CITY           SKY/WX    TMP DP  RH WIND       PRES   REMARKS
CAPE GIRARDEAU CLOUDY    36  23  59 N8        29.94R WCI  30
FARMINGTON     MOCLDY    31  23  72 NW6       29.95R WCI  25
POPLAR BLUFF   CLOUDY    35  29  78 N7        29.93R WCI  29
WEST PLAINS    CLOUDY    36  27  69 N7        29.94R

$$


USA.gov is the U.S. government's official web portal to all federal, state and local government web resources and services.